TimeEDT,TemperatureF,Dew PointF,Humidity,Sea Level PressureIn,VisibilityMPH,Wind Direction,Wind SpeedMPH,Gust SpeedMPH,PrecipitationIn,Events,Conditions,WindDirDegrees,DateUTC
12:53 AM,73.9,72.0,93,30.27,9.0,Calm,Calm,-,N/A,,Clear,0,2013-07-16 04:53:00
1:53 AM,73.9,72.0,93,30.26,8.0,Calm,Calm,-,N/A,,Clear,0,2013-07-16 05:53:00
2:53 AM,72.0,71.1,97,30.26,4.0,Calm,Calm,-,N/A,,Clear,0,2013-07-16 06:53:00
3:26 AM,71.6,69.8,94,30.26,2.5,NNE,3.5,-,N/A,,Clear,30,2013-07-16 07:26:00
3:34 AM,71.6,71.6,100,30.26,6.0,Calm,Calm,-,N/A,,Partly Cloudy,0,2013-07-16 07:34:00
3:53 AM,72.0,70.0,93,30.26,7.0,Calm,Calm,-,N/A,,Scattered Clouds,0,2013-07-16 07:53:00
4:03 AM,71.6,69.8,94,30.26,6.0,NNE,3.5,-,N/A,,Mostly Cloudy,30,2013-07-16 08:03:00
4:37 AM,71.6,69.8,94,30.26,4.0,Calm,Calm,-,N/A,,Scattered Clouds,0,2013-07-16 08:37:00
4:53 AM,72.0,70.0,93,30.25,4.0,Calm,Calm,-,N/A,,Partly Cloudy,0,2013-07-16 08:53:00
5:44 AM,71.6,69.8,94,30.27,5.0,Calm,Calm,-,N/A,,Mostly Cloudy,0,2013-07-16 09:44:00
5:53 AM,72.0,71.1,97,30.26,6.0,NNE,3.5,-,N/A,,Overcast,30,2013-07-16 09:53:00
6:18 AM,71.6,71.6,100,30.27,5.0,Calm,Calm,-,N/A,,Scattered Clouds,0,2013-07-16 10:18:00
6:53 AM,73.0,71.1,93,30.27,4.0,Calm,Calm,-,N/A,,Clear,0,2013-07-16 10:53:00
7:03 AM,73.4,71.6,94,30.28,5.0,NE,3.5,-,N/A,,Scattered Clouds,40,2013-07-16 11:03:00
7:12 AM,73.4,71.6,94,30.28,5.0,Calm,Calm,-,N/A,,Mostly Cloudy,0,2013-07-16 11:12:00
7:50 AM,73.4,73.4,100,30.29,2.5,ENE,4.6,-,0.01,,Overcast,60,2013-07-16 11:50:00
7:51 AM,75.0,73.0,94,30.28,2.5,ENE,4.6,-,0.01,,Overcast,60,2013-07-16 11:51:00
7:54 AM,73.4,73.4,100,30.29,1.5,ENE,4.6,-,N/A,,Overcast,60,2013-07-16 11:54:00
8:10 AM,75.2,73.4,94,30.29,2.0,NE,3.5,-,N/A,,Overcast,50,2013-07-16 12:10:00
8:18 AM,75.2,73.4,94,30.30,5.0,ENE,3.5,-,N/A,,Overcast,60,2013-07-16 12:18:00
8:38 AM,77.0,73.4,89,30.30,7.0,NE,5.8,-,N/A,,Mostly Cloudy,50,2013-07-16 12:38:00
8:46 AM,77.0,73.4,89,30.30,8.0,Variable,3.5,-,N/A,,Scattered Clouds,0,2013-07-16 12:46:00
8:53 AM,77.0,73.0,88,30.30,8.0,NE,5.8,-,N/A,,Mostly Cloudy,40,2013-07-16 12:53:00
9:08 AM,78.8,73.4,83,30.30,10.0,NE,5.8,-,N/A,,Mostly Cloudy,50,2013-07-16 13:08:00
9:53 AM,80.1,72.0,76,30.30,10.0,ENE,4.6,-,N/A,,Scattered Clouds,60,2013-07-16 13:53:00
10:00 AM,80.6,73.4,79,30.31,10.0,Variable,3.5,-,N/A,,Mostly Cloudy,0,2013-07-16 14:00:00
10:32 AM,80.6,71.6,74,30.30,10.0,East,4.6,-,N/A,,Scattered Clouds,90,2013-07-16 14:32:00
10:53 AM,82.0,72.0,71,30.29,10.0,North,3.5,-,N/A,,Scattered Clouds,10,2013-07-16 14:53:00
11:02 AM,82.4,71.6,70,30.30,10.0,NE,4.6,-,N/A,,Mostly Cloudy,40,2013-07-16 15:02:00
11:32 AM,84.2,71.6,66,30.29,10.0,NE,5.8,-,N/A,,Scattered Clouds,40,2013-07-16 15:32:00
11:53 AM,82.9,71.1,67,30.28,10.0,Variable,5.8,-,N/A,,Partly Cloudy,0,2013-07-16 15:53:00
12:53 PM,86.0,70.0,59,30.27,10.0,NNE,5.8,-,N/A,,Partly Cloudy,30,2013-07-16 16:53:00
1:53 PM,87.1,68.0,53,30.26,10.0,ESE,3.5,-,N/A,,Clear,120,2013-07-16 17:53:00
2:53 PM,88.0,66.9,49,30.25,10.0,Variable,4.6,-,N/A,,Clear,0,2013-07-16 18:53:00
3:53 PM,89.1,68.0,50,30.24,10.0,Calm,Calm,-,N/A,,Partly Cloudy,0,2013-07-16 19:53:00
4:53 PM,90.0,69.1,50,30.23,10.0,Variable,3.5,-,N/A,,Clear,0,2013-07-16 20:53:00
5:53 PM,90.0,66.9,46,30.21,10.0,Calm,Calm,-,N/A,,Clear,0,2013-07-16 21:53:00
6:53 PM,89.1,68.0,50,30.21,10.0,Calm,Calm,-,N/A,,Clear,0,2013-07-16 22:53:00
7:53 PM,86.0,71.1,61,30.22,10.0,Calm,Calm,-,N/A,,Clear,0,2013-07-16 23:53:00
8:53 PM,80.1,75.0,85,30.22,10.0,Calm,Calm,-,N/A,,Clear,0,2013-07-17 00:53:00
9:53 PM,78.1,73.9,87,30.23,10.0,Calm,Calm,-,N/A,,Clear,0,2013-07-17 01:53:00
10:53 PM,75.9,73.9,94,30.24,10.0,Calm,Calm,-,N/A,,Clear,0,2013-07-17 02:53:00
11:53 PM,75.9,73.0,91,30.23,10.0,Calm,Calm,-,N/A,,Clear,0,2013-07-17 03:53:00